Weather reports worldwide

Advertisment
Catania/Sigonella, Italy (16459): temperature & dewpoint: 13.09.2019 19:00:00 - 19.09.2019 19:00:00 (CEST)Catania/Sigonella, Italy (16459): wind speed: 13.09.2019 19:00:00 - 19.09.2019 19:00:00 (CEST)Catania/Sigonella, Italy (16459): wind direction: 13.09.2019 19:00:00 - 19.09.2019 19:00:00 (CEST)Catania/Sigonella, Italy (16459): reduced air pressure: 13.09.2019 19:00:00 - 19.09.2019 19:00:00 (CEST)Catania/Sigonella, Italy (16459): visibility: 13.09.2019 19:00:00 - 19.09.2019 19:00:00 (CEST)
Date & Time tt [°C] td [°C] ff [km/h] ff [kn] dd ppp [hPa] vv [km]
19.09.2019 19:00:00 21,0 20,0 22 12 SW - 6
19.09.2019 18:00:00 21,0 21,0 26 14 E - 8
19.09.2019 17:00:00 30,6 20,8 18 10 SW 1013,6 10
19.09.2019 16:00:00 31,0 21,0 28 15 SW - 10
19.09.2019 15:00:00 32,0 20,0 28 15 SW - 10
19.09.2019 14:00:00 31,2 22,0 28 15 WSW 1014,3 12
19.09.2019 13:00:00 30,0 22,0 28 15 SW - 10
19.09.2019 12:00:00 30,0 22,0 29 16 WSW - 10
19.09.2019 11:00:00 28,8 20,3 26 14 WSW 1016,3 10
19.09.2019 10:00:00 26,0 23,0 13 7 W - 10
19.09.2019 09:00:00 23,0 20,0 9 5 WNW - 8
19.09.2019 08:00:00 20,2 19,2 9 5 W 1015,9 8
19.09.2019 07:00:00 19,0 18,0 5 3 WSW - 8
19.09.2019 06:00:00 20,0 19,0 8 4 NNW - 9
19.09.2019 05:00:00 20,8 19,8 15 8 W 1015,8 9
19.09.2019 04:00:00 21,0 20,0 8 4 WSW - 9
19.09.2019 03:00:00 20,0 19,0 4 2 SW - 9
19.09.2019 02:00:00 20,6 19,8 4 2 SW 1016,5 9
19.09.2019 01:00:00 22,0 21,0 4 2 NNW - 9
19.09.2019 00:00:00 22,0 22,0 5 3 W - 9
18.09.2019 23:00:00 22,6 21,9 4 2 WSW 1016,4 10
18.09.2019 22:00:00 23,0 23,0 4 2 SE - 10
18.09.2019 21:00:00 24,0 23,0 5 3 E - 10
18.09.2019 20:00:00 24,4 23,9 11 6 ENE 1015,4 8
18.09.2019 19:00:00 25,0 25,0 15 8 ENE - 8
18.09.2019 18:00:00 26,0 24,0 16 9 ENE - 8
18.09.2019 17:00:00 27,2 23,2 22 12 ENE 1015,0 8
18.09.2019 16:00:00 - - - - - - -
18.09.2019 15:00:00 29,0 21,0 18 10 E - 8
18.09.2019 14:00:00 30,0 20,0 15 8 ESE 1015,5 8
18.09.2019 13:00:00 29,0 20,0 4 2 SE - 7
18.09.2019 12:00:00 27,0 19,0 5 3 E - 7
18.09.2019 11:00:00 26,8 20,4 5 3 E 1016,5 7
18.09.2019 10:00:00 24,0 20,0 5 3 WSW - 7
18.09.2019 09:00:00 23,0 19,0 2 1 N - 7
18.09.2019 08:00:00 19,6 18,8 4 2 WSW 1016,3 7
18.09.2019 07:00:00 20,0 19,0 8 4 W - 8
18.09.2019 06:00:00 20,0 19,0 8 4 NNW - 10
18.09.2019 05:00:00 20,0 19,2 4 2 NW 1015,7 10
18.09.2019 04:00:00 20,0 20,0 11 6 WNW - 10
18.09.2019 03:00:00 20,0 19,0 4 2 W - 10
18.09.2019 02:00:00 21,2 21,0 5 3 W 1016,4 10
18.09.2019 01:00:00 22,0 22,0 11 6 W - 10
18.09.2019 00:00:00 23,0 22,0 9 5 W - 10
17.09.2019 23:00:00 23,0 22,2 9 5 WSW 1016,4 10
17.09.2019 22:00:00 23,0 23,0 5 3 SSW - 10
17.09.2019 21:00:00 24,0 23,0 8 4 SSW - 10
17.09.2019 20:00:00 24,2 23,3 11 6 NE 1015,5 12
17.09.2019 19:00:00 25,0 23,0 16 9 NE - 10
17.09.2019 18:00:00 26,0 23,0 24 13 ENE - 10
17.09.2019 17:00:00 27,4 22,4 26 14 NE 1015,2 13
17.09.2019 16:00:00 29,0 20,0 22 12 E - 10
17.09.2019 15:00:00 29,0 19,0 18 10 ENE - 10
17.09.2019 14:00:00 29,2 16,7 24 13 NE 1016,4 13
17.09.2019 13:00:00 30,0 13,0 11 6 W - 10
17.09.2019 12:00:00 29,0 16,0 8 4 W - 10
17.09.2019 11:00:00 27,0 18,6 4 2 N 1018,1 12
17.09.2019 10:00:00 24,0 18,0 8 4 W - 10
17.09.2019 09:00:00 22,0 18,0 11 6 W - 10
17.09.2019 08:00:00 19,0 18,2 9 5 WNW 1017,9 10
17.09.2019 07:00:00 18,0 18,0 9 5 W - 10
17.09.2019 06:00:00 18,0 18,0 5 3 WSW - 10
17.09.2019 05:00:00 20,0 19,2 9 5 WNW 1017,4 10
17.09.2019 04:00:00 20,0 20,0 13 7 W - 10
17.09.2019 03:00:00 21,0 19,0 13 7 W - 10
17.09.2019 02:00:00 21,0 20,2 11 6 W 1018,4 10
17.09.2019 01:00:00 22,0 21,0 9 5 WNW - 10
17.09.2019 00:00:00 22,0 22,0 8 4 W - 10
16.09.2019 23:00:00 23,0 19,4 9 5 WNW 1018,4 10
16.09.2019 22:00:00 24,0 18,0 11 6 W - 10
16.09.2019 21:00:00 24,0 23,0 8 4 NNE - 10
16.09.2019 20:00:00 25,2 22,3 15 8 NE 1017,4 8
16.09.2019 19:00:00 26,0 20,0 22 12 NE - 8
16.09.2019 18:00:00 27,0 19,0 26 14 ENE - 8
16.09.2019 17:00:00 28,4 16,4 21 11 E 1017,6 8
16.09.2019 16:00:00 30,0 16,0 24 13 E - 8
16.09.2019 15:00:00 30,0 16,0 18 10 E - 8
16.09.2019 14:00:00 30,0 14,1 16 9 E 1019,1 8
16.09.2019 13:00:00 30,0 12,0 5 3 SW - 8
16.09.2019 12:00:00 29,0 14,0 4 2 S - 8
16.09.2019 11:00:00 26,8 14,2 5 3 WNW 1020,6 8
16.09.2019 10:00:00 25,0 17,0 4 2 WNW - 8
16.09.2019 09:00:00 22,0 17,0 8 4 WNW - 10
16.09.2019 08:00:00 18,2 17,2 9 5 WNW 1020,6 10
16.09.2019 07:00:00 18,0 15,0 9 5 W - 10
16.09.2019 06:00:00 18,0 18,0 11 6 WNW - 10
16.09.2019 05:00:00 18,8 18,8 11 6 W 1020,7 10
16.09.2019 04:00:00 20,0 20,0 8 4 W - 10
16.09.2019 03:00:00 20,0 20,0 15 8 WNW - 10
16.09.2019 02:00:00 20,8 20,8 9 5 W 1021,6 10
16.09.2019 01:00:00 22,0 22,0 9 5 WNW - 10
16.09.2019 00:00:00 22,0 22,0 13 7 W - 10
15.09.2019 23:00:00 22,8 22,3 5 3 NNW 1022,3 10
15.09.2019 22:00:00 24,0 23,0 4 2 N - 10
15.09.2019 21:00:00 23,0 22,0 9 5 NE - 10
15.09.2019 20:00:00 25,0 22,3 13 7 ENE 1021,0 10
15.09.2019 19:00:00 26,0 19,0 16 9 ENE - 10
15.09.2019 18:00:00 27,0 13,0 21 11 E - 10
15.09.2019 17:00:00 28,0 12,4 24 13 E 1021,4 12
15.09.2019 16:00:00 29,0 14,0 24 13 E - 10
15.09.2019 15:00:00 30,0 13,0 26 14 ESE - 10
15.09.2019 14:00:00 30,0 10,6 5 3 SSW 1022,7 12
15.09.2019 13:00:00 29,0 12,0 8 4 SSW - 10
15.09.2019 12:00:00 29,0 12,0 9 5 SSW - 10
15.09.2019 11:00:00 27,2 15,9 8 4 WSW 1024,6 12
15.09.2019 10:00:00 24,0 18,0 11 6 WNW - 10
15.09.2019 09:00:00 22,0 19,0 11 6 W - 10
15.09.2019 08:00:00 18,4 17,4 9 5 W 1024,0 10
15.09.2019 07:00:00 17,0 17,0 8 4 WSW - 10
15.09.2019 06:00:00 17,0 17,0 9 5 W - 10
15.09.2019 05:00:00 18,0 17,7 8 4 WSW 1023,5 10
15.09.2019 04:00:00 19,0 18,0 11 6 W - 10
15.09.2019 03:00:00 19,0 19,0 11 6 WSW - 10
15.09.2019 02:00:00 20,4 20,4 11 6 W 1023,6 10
15.09.2019 01:00:00 22,0 21,0 11 6 WNW - 10
15.09.2019 00:00:00 21,0 20,0 11 6 WNW - 10
14.09.2019 23:00:00 21,4 18,8 4 2 SSW 1023,6 10
14.09.2019 22:00:00 22,0 20,0 2 1 S - 10
14.09.2019 21:00:00 23,0 20,0 8 4 SSE - 10
14.09.2019 20:00:00 23,8 19,1 11 6 ESE 1023,1 10
14.09.2019 19:00:00 26,0 15,0 16 9 E - 10
14.09.2019 18:00:00 27,0 14,0 26 14 E - 10
14.09.2019 17:00:00 27,8 11,4 24 13 E 1023,0 10
14.09.2019 16:00:00 28,0 11,0 22 12 E - 10
14.09.2019 15:00:00 29,0 11,0 22 12 E - 10
14.09.2019 14:00:00 29,8 7,1 8 4 ESE 1023,8 10
14.09.2019 13:00:00 30,0 14,0 8 4 SE - 10
14.09.2019 12:00:00 28,0 14,0 8 4 ESE - 10
14.09.2019 11:00:00 27,2 19,0 4 2 WNW 1024,7 10
14.09.2019 10:00:00 25,0 19,0 11 6 W - 10
14.09.2019 09:00:00 22,0 18,0 11 6 W - 10
14.09.2019 08:00:00 19,0 18,0 8 4 W 1024,6 15
14.09.2019 07:00:00 19,0 18,0 11 6 W - 10
14.09.2019 06:00:00 18,0 18,0 13 7 WSW - 10
14.09.2019 05:00:00 18,8 18,5 8 4 WSW 1024,5 13
14.09.2019 04:00:00 - - - - - - -
14.09.2019 03:00:00 20,0 20,0 13 7 W - 10
14.09.2019 02:00:00 20,0 20,0 8 4 W - 10
14.09.2019 01:00:00 - - 8 4 WSW - 10
14.09.2019 00:00:00 22,0 21,0 9 5 W - 10
13.09.2019 23:00:00 23,0 22,2 2 1 N 1025,3 13
13.09.2019 22:00:00 23,0 21,0 2 1 WSW - 10
13.09.2019 21:00:00 24,0 21,0 8 4 ESE - 10
13.09.2019 20:00:00 25,0 20,5 9 5 SE 1024,0 10
13.09.2019 19:00:00 27,0 17,0 15 8 E - 10

tt = temperature
td = dewpoint
ff = wind speed
dd = wind direction
ppp = reduced air pressure
vv = visibility

Next stations